Starlink 5580

operational
NORAD ID: 55748 Int'l Des: 2023-028 Owner: SPXS Country: US Constellation: starlink
LEOCIRCULAR

About Starlink 5580

Description loading...

Live Position

Loading 3D Globe...

Upcoming Passes

Altitude History

Altitude vs Time

uPlot chart will show altitude changes over time

Two-Line Element Set

1 55748U 23028H 26015.11137846 -.00000490 00000-0 -33310-4 0 9998
2 55748 70.0010 19.5865 0002473 272.6078 87.4798 14.98330754158013
Epoch: Jan 15, 2026 • Age: 10 hours

Current Status

Altitude 577.0 km
Velocity 7.57 km/s
Sub-Earth Point -14.45°S, 74.99°E
Launch Date Mar 3, 2023
Age 2.8 years
Type internet

Technical Details

Classification Payload
Mass 305.00 kg
Dry Mass 290.00 kg
Total Mass 305.00 kg
Length 0.20 m
Diameter 2.80 m
Span 9.00 m
Shape Box + pan
Manufacturer SPXS
Bus Type Starlink
Phase Status In Orbit
Owner/State SPXS/US

Large Constellations

Loading constellations...